BEIDOU-3S M2S (C58)

Last updated on Wed Nov 20 2024 00:03:14 GMT+0000 (Coordinated Universal Time)

1 40748U 15037A 24324.24289085 -.00000077 00000+0 00000+0 0 9995 2 40748 55.3621 321.7559 0013187 259.2472 100.6094 1.86229120 63415
UTC large
Height (km)
Speed (km/s)
/
Latitude / Longitude
Inclination (degrees)
Orbital Period (minutes)
Azimuth
Elevation
Range (km)
Doppler Factor

Next 0 passes for location: London (51.5072 / 0.1276)

Sorry there are no passes over London.